Regional Weather Roundup
Issued by NWS

Home | Current Version | Previous Version | Graphics & Text | Print | Product List | Glossary Off
Versions: 1 2 3 4 5 6 7 8 9 10 11 12 13 14 15 16 17 18 19 20 21 22 23 24 25 26 27 28 29 30 31 32 33 34 35 36 37 38 39 40 41 42 43 44 45 46 47 48 49 50

000
ASUS43 KDTX 271601
RWRMI
MICHIGAN HOURLY REGIONAL WEATHER ROUNDUP
NATIONAL WEATHER SERVICE DETROIT/PONTIAC MI
1200 PM EDT WED MAY 27 2015

NOTE: "FAIR" INDICATES FEW OR NO CLOUDS BELOW 12,000 FEET WITH NO
SIGNIFICANT WEATHER AND/OR OBSTRUCTION TO VISIBILITY.

MIZ047>049-052>055-059>063-066>070-074>076-081>083-271700-
SOUTHEAST LOWER MICHIGAN

CITY           SKY/WX    TMP DP  RH WIND       PRES   REMARKS
ADRIAN         PTSUNNY   76  63  64 SW14G25   29.99S
ALMA           PTSUNNY   73  61  67 SW18G26   29.91R
ANN ARBOR      PTSUNNY   76  64  66 SW14      29.97S
BAD AXE        PTSUNNY   74  58  57 SW18G28   29.90S
CARO           PTSUNNY   74  61  62 SW13G25   29.90S
DETROIT CITY   MOSUNNY   77  62  59 W16G25    29.97R
DETROIT        PTSUNNY   79  63  57 S17G26    29.98S
FLINT          MOSUNNY   76  59  55 SW20G29   29.93R
GROSSE ILE     MOSUNNY   73  66  78 S14       29.98S
HILLSDALE      PTSUNNY   74  64  69 SW12G17   29.99S
HOWELL         MOSUNNY   74  58  57 SW20      29.96R

CITY           SKY/WX    TMP DP  RH WIND       PRES   REMARKS
JACKSON        MOSUNNY   75  61  61 SW16G22   29.97R
LAMBERTVILLE   MOSUNNY   79  63  57 SW9G17    30.00S
LANSING        MOSUNNY   75  59  57 SW22G29   29.94R
LAPEER         PTSUNNY   76  57  52 SW15G28   29.94R
MASON          PTSUNNY   73  58  60 SW10G21   29.95S
MONROE         MOSUNNY   77  64  65 SW13G24   29.98R
MT. CLEMENS    MOSUNNY   80  63  56 SW14G21   29.94S
PONTIAC        PTSUNNY   77  60  55 SW20G28   29.95S
PORT HOPE        N/A     75  61  61 SW15G24   29.86S
PORT HURON     PTSUNNY   77  63  61 SW10G21   29.95R
TRI CITIES     MOSUNNY   76  60  57 SW24G37   29.88S
MIDLAND        PTSUNNY   76  60  59 SW20G33   29.87S HAZE
TROY           PTSUNNY   77  62  59 SW12G21   29.98R
SAGINAW HB     PTSUNNY   75  59  57 SW23      29.89R
$$
MIZ043>046-050>051-056>058-064>065-071>073-077>080-271700-
SOUTHWEST LOWER MICHIGAN

CITY           SKY/WX    TMP DP  RH WIND       PRES   REMARKS
BATTLE CREEK   MOSUNNY   76  60  57 SW23G33   29.96R
BENTON HARBOR  SUNNY     71  62  73 W16       29.96R
BIG RAPIDS     CLOUDY    66  58  77 SW14G24   29.89S
COLDWATER      PTSUNNY   73  60  64 SW13G22   29.98S
FREMONT        CLOUDY    65  60  83 W12       29.92R
HOLLAND        PTSUNNY   69  60  73 SW16G28   29.96R
GRAND RAPIDS   PTSUNNY   70  59  68 W24G38    29.94R
IONIA          CLOUDY    74  58  57 W22G30    29.92R
KALAMAZOO      PTSUNNY   77  61  57 SW15G25   29.95S
LUDINGTON      CLOUDY    58  54  86 W9        29.91R
MARSHALL       PTSUNNY   76  61  58 SW15G22   29.96R
MOUNT PLEASANT MOSUNNY   73  60  63 SW17G26   29.89R
MUSKEGON       PTSUNNY   65  58  78 SW14G25   29.93R
SOUTH HAVEN    MOSUNNY   71  61  70 SW14G25   29.96R
$$
MIZ016>042-271700-
NORTHERN LOWER MICHIGAN

CITY           SKY/WX    TMP DP  RH WIND       PRES   REMARKS
ALPENA         MOSUNNY   75  56  51 SW18G26   29.80R
BEAVER ISLAND  DRIZZLE   50  50  99 SW10      29.81R
BELLAIRE       CLOUDY    61  56  83 SW9G16    29.83R HAZE
CADILLAC       CLOUDY    63  56  79 W16G23    29.87R
CHARLEVOIX     DRIZZLE   54  54 100 SW10      29.86R
FRANKFORT      CLOUDY    54  48  81 SW8       29.87R HAZE
GAYLORD        CLOUDY    63  58  83 SW22G32   29.83R
HARBOR SPRINGS DRZL/FOG  49  49  99 W8G16     29.82R VSB 3/4
HOUGHTON LAKE  PTSUNNY   69  58  67 SW16G24   29.86R
MANISTEE       CLOUDY    61  52  72 W10       29.90R
OSCODA         CLOUDY    75  61  61 SW18G24   29.83R
PELLSTON       LGT RAIN  53  52  96 W12G22    29.81R FOG
ROGERS CITY    PTSUNNY   72  59  63 SW14G26   29.79R
TRAVERSE CITY  LGT RAIN  63  56  78 W12G25    29.83R
$$
MIZ007>008-015-271700-
EASTERN UPPER MICHIGAN

CITY           SKY/WX    TMP DP  RH WIND       PRES   REMARKS
KINROSS        CLOUDY    54  54 100 SW6G17    29.74R
MACKINAC ISLAN FOG       48  48 100 SW17G26   29.78R VSB 1/2
NEWBERRY       LGT RAIN  50  49  98 W10       29.76R VSB 1
S. S. MARIE    CLOUDY    55  53  93 SW10      29.71R
$$
MIZ004>006-011>014-085-271700-
CENTRAL UPPER MICHIGAN

CITY           SKY/WX    TMP DP  RH WIND       PRES   REMARKS
MANISTIQUE     DRIZZLE   56  55  95 W6        29.79R
ESCANABA       CLOUDY    59  54  82 NW10      29.81R
MENOMINEE      PTSUNNY   59  55  88 W5        29.87R
SAWYER-GWINN   CLOUDY    57  54  88 W7        29.81R
$$
MIZ001>003-009>011-084-271700-
WESTERN UPPER MICHIGAN

CITY           SKY/WX    TMP DP  RH WIND       PRES   REMARKS
IRON MOUNTAIN  CLOUDY    60  56  86 VRB6      29.82S
HOUGHTON       PTSUNNY   64  52  64 W23G30    29.78R
COPPER HARBOR    N/A     64  53  67 NW7       29.76R
IRONWOOD       MOSUNNY   70  57  64 W10       29.82R
$$

ABBREVIATIONS USED IN REMARKS
   TC - TEMPERATURE IN CELSIUS
  WCI - WIND CHILL INDEX
   HX - HEAT INDEX
  VSB - VISIBILITY



USA.gov is the U.S. government's official web portal to all federal, state and local government web resources and services.